Weather History for Bentonville, AR

Change the Weather History Date:

Saturday, December 7, 2013

  Actual Average Record
Temperature  
Mean Temperature 14 °F -  
Max Temperature 23 °F 48 °F 75 °F (1966)
Min Temperature 5 °F 29 °F 5 °F (2013)
Degree Days  
Heating Degree Days 51    
Moisture  
Dew Point 4 °F    
Average Humidity 60    
Maximum Humidity 73    
Minimum Humidity 43    
Precipitation  
Precipitation 0.00 in - - ()
Sea Level Pressure  
Sea Level Pressure 30.45 in    
Wind  
Wind Speed 8 mph (ENE)    
Max Wind Speed 15 mph    
Max Gust Speed 17 mph    
Visibility 10 miles    
Events      
Averages and records for this station are not official NWS values.
T = Trace of Precipitation, MM = Missing Value Source: NWS Daily Summary

Daily Weather History Graph

Daily Weather History Graph

Search for Another Location

Airport:

Trip Planner

Search our weather history database for the weather conditions in past years. The results will help you decide how hot, cold, wet, or windy it might be!

Date:

Astronomy

Dec. 07, 2013 Rise Set
Actual Time 7:15 AM CST 5:01 PM CST
Civil Twilight 6:46 AM CST 5:30 PM CST
Nautical Twilight 6:14 AM CST 6:02 PM CST
Astronomical Twilight 5:43 AM CST 6:33 PM CST
Moon 11:06 AM CST (12/7) 10:37 PM CST (12/7)
Length of Visible Light 10h 43m
Length of Day
9h 46m
Waxing Crescent, 29% of the Moon is Illuminated
Dec 7
Waxing Crescent
Dec 9
First Quarter
Dec 17
Full
Dec 25
Last Quarter
Jan 1
New

Hourly Weather History & Observations

Time (CST) Temp. Windchill Dew Point Humidity Pressure Visibility Wind Dir Wind Speed Gust Speed Precip Events Conditions
12:15 AM 12.2 °F 0.7 °F 3.2 °F 67% 30.50 in 10.0 mi NNE 8.1 mph - N/A   Clear
12:35 AM 12.2 °F 0.7 °F 3.2 °F 67% 30.50 in 10.0 mi NNE 8.1 mph - N/A   Clear
12:55 AM 12.2 °F -0.2 °F 3.2 °F 67% 30.50 in 10.0 mi North 9.2 mph - N/A   Clear
1:15 AM 12.2 °F -0.2 °F 1.4 °F 62% 30.49 in 10.0 mi NNE 9.2 mph - N/A   Clear
1:35 AM 12.2 °F 0.7 °F 1.4 °F 62% 30.49 in 10.0 mi NNE 8.1 mph - N/A   Clear
1:55 AM 10.4 °F -0.4 °F 1.4 °F 67% 30.51 in 10.0 mi NE 6.9 mph - N/A   Clear
2:15 AM 10.4 °F -1.5 °F -0.4 °F 62% 30.51 in 10.0 mi NNE 8.1 mph - N/A   Clear
2:35 AM 10.4 °F -0.4 °F -0.4 °F 62% 30.51 in 10.0 mi NNE 6.9 mph - N/A   Clear
2:55 AM 10.4 °F 0.8 °F -0.4 °F 62% 30.52 in 10.0 mi NNE 5.8 mph - N/A   Clear
3:15 AM 10.4 °F -0.4 °F -0.4 °F 62% 30.52 in 10.0 mi NNE 6.9 mph - N/A   Clear
3:35 AM 10.4 °F 0.8 °F -0.4 °F 62% 30.52 in 10.0 mi NNE 5.8 mph - N/A   Clear
3:55 AM 8.6 °F -1.3 °F -0.4 °F 67% 30.52 in 10.0 mi NNE 5.8 mph - N/A   Clear
4:15 AM 8.6 °F -1.3 °F 1.4 °F 73% 30.52 in 10.0 mi NNE 5.8 mph - N/A   Clear
4:35 AM 8.6 °F -3.7 °F -0.4 °F 67% 30.51 in 10.0 mi NNE 8.1 mph - N/A   Clear
4:55 AM 8.6 °F -1.3 °F -0.4 °F 67% 30.51 in 10.0 mi NE 5.8 mph - N/A   Clear
5:15 AM 8.6 °F -1.3 °F -2.2 °F 62% 30.51 in 10.0 mi NE 5.8 mph - N/A   Clear
5:35 AM 8.6 °F 0.1 °F -0.4 °F 67% 30.52 in 10.0 mi NE 4.6 mph - N/A   Clear
5:55 AM 6.8 °F -2.0 °F -0.4 °F 72% 30.52 in 10.0 mi NE 4.6 mph - N/A   Clear
6:15 AM 6.8 °F -3.5 °F -0.4 °F 72% 30.53 in 10.0 mi NNE 5.8 mph - N/A   Clear
6:35 AM 6.8 °F -5.9 °F -2.2 °F 67% 30.54 in 10.0 mi NNE 8.1 mph - N/A   Clear
6:55 AM 6.8 °F -4.8 °F -2.2 °F 67% 30.55 in 10.0 mi NNE 6.9 mph - N/A   Clear
7:15 AM 5.0 °F -9.1 °F -2.2 °F 72% 30.55 in 10.0 mi NNE 9.2 mph - N/A   Clear
7:35 AM 6.8 °F -5.9 °F -0.4 °F 72% 30.56 in 10.0 mi NNE 8.1 mph - N/A   Clear
7:55 AM 6.8 °F -5.9 °F -2.2 °F 67% 30.56 in 10.0 mi NNE 8.1 mph - N/A   Clear
8:15 AM 6.8 °F -4.8 °F -0.4 °F 72% 30.56 in 10.0 mi NE 6.9 mph - N/A   Clear
8:35 AM 8.6 °F -2.6 °F -0.4 °F 67% 30.56 in 10.0 mi NE 6.9 mph - N/A   Clear
8:55 AM 8.6 °F -3.7 °F -0.4 °F 67% 30.56 in 10.0 mi NE 8.1 mph - N/A   Clear
9:15 AM 8.6 °F -3.7 °F 1.4 °F 73% 30.56 in 10.0 mi NE 8.1 mph - N/A   Clear
9:35 AM 10.4 °F -2.4 °F 1.4 °F 67% 30.56 in 10.0 mi ENE 9.2 mph - N/A   Clear
9:55 AM 12.2 °F -1.0 °F 1.4 °F 62% 30.57 in 10.0 mi ENE 10.4 mph - N/A   Clear
10:15 AM 14.0 °F 1.2 °F 1.4 °F 57% 30.57 in 10.0 mi ENE 10.4 mph - N/A   Clear
10:35 AM 15.8 °F 2.7 °F 3.2 °F 58% 30.56 in 10.0 mi ENE 11.5 mph - N/A   Clear
10:55 AM 15.8 °F 5.1 °F 1.4 °F 53% 30.55 in 10.0 mi ENE 8.1 mph - N/A   Clear
11:15 AM 15.8 °F 4.2 °F 3.2 °F 58% 30.53 in 10.0 mi ENE 9.2 mph - N/A   Clear
11:35 AM 17.6 °F 8.2 °F 3.2 °F 53% 30.55 in 10.0 mi ENE 6.9 mph - N/A   Clear
11:55 AM 17.6 °F 10.7 °F 5.0 °F 58% 30.54 in 10.0 mi ENE 4.6 mph - N/A   Clear
12:15 PM 17.6 °F 8.2 °F 5.0 °F 58% 30.53 in 10.0 mi NE 6.9 mph - N/A   Clear
12:35 PM 19.4 °F 10.4 °F 6.8 °F 58% 30.52 in 10.0 mi ENE 6.9 mph - N/A   Clear
12:55 PM 19.4 °F 9.5 °F 5.0 °F 54% 30.49 in 10.0 mi ENE 8.1 mph - N/A   Clear
1:15 PM 21.2 °F 12.6 °F 5.0 °F 50% 30.48 in 10.0 mi NE 6.9 mph - N/A   Clear
1:35 PM 21.2 °F 10.9 °F 5.0 °F 50% 30.45 in 10.0 mi ENE 9.2 mph - N/A   Clear
1:55 PM 21.2 °F 7.8 °F 3.2 °F 46% 30.39 in 10.0 mi ENE 15.0 mph - N/A   Clear
2:15 PM 21.2 °F 10.9 °F 3.2 °F 46% 30.40 in 10.0 mi ENE 9.2 mph - N/A   Clear
2:35 PM 23.0 °F 13.1 °F 3.2 °F 43% 30.40 in 10.0 mi ENE 9.2 mph - N/A   Clear
2:55 PM 21.2 °F 12.6 °F 3.2 °F 46% 30.39 in 10.0 mi ENE 6.9 mph - N/A   Partly Cloudy
3:15 PM 21.2 °F 10.9 °F 3.2 °F 46% 30.38 in 10.0 mi ENE 9.2 mph - N/A   Clear
3:35 PM 21.2 °F 10.9 °F 3.2 °F 46% 30.39 in 10.0 mi East 9.2 mph - N/A   Clear
3:55 PM 21.2 °F 12.6 °F 3.2 °F 46% 30.40 in 10.0 mi East 6.9 mph - N/A   Clear
4:15 PM 21.2 °F 12.6 °F 5.0 °F 50% 30.40 in 10.0 mi ENE 6.9 mph - N/A   Clear
4:35 PM 21.2 °F 11.7 °F 6.8 °F 54% 30.39 in 10.0 mi ENE 8.1 mph - N/A   Clear
4:55 PM 21.2 °F 12.6 °F 6.8 °F 54% 30.39 in 10.0 mi ENE 6.9 mph - N/A   Mostly Cloudy
5:15 PM 21.2 °F 11.7 °F 6.8 °F 54% 30.39 in 10.0 mi East 8.1 mph - N/A   Overcast
5:35 PM 21.2 °F 10.9 °F 6.8 °F 54% 30.39 in 10.0 mi East 9.2 mph - N/A   Overcast
5:55 PM 21.2 °F 12.6 °F 6.8 °F 54% 30.38 in 10.0 mi East 6.9 mph - N/A   Overcast
6:15 PM 21.2 °F 13.6 °F 8.6 °F 58% 30.39 in 10.0 mi ENE 5.8 mph - N/A   Mostly Cloudy
6:35 PM 21.2 °F 12.6 °F 8.6 °F 58% 30.38 in 10.0 mi ENE 6.9 mph - N/A   Overcast
6:55 PM 21.2 °F 10.9 °F 6.8 °F 54% 30.38 in 10.0 mi NE 9.2 mph - N/A   Overcast
7:15 PM 21.2 °F 9.5 °F 6.8 °F 54% 30.37 in 10.0 mi East 11.5 mph - N/A   Overcast
7:35 PM 19.4 °F 8.6 °F 8.6 °F 63% 30.37 in 10.0 mi ENE 9.2 mph - N/A   Overcast
7:55 PM 19.4 °F 7.9 °F 8.6 °F 63% 30.35 in 10.0 mi East 10.4 mph - N/A   Mostly Cloudy
8:15 PM 21.2 °F 10.9 °F 8.6 °F 58% 30.34 in 10.0 mi East 9.2 mph - N/A   Mostly Cloudy
8:35 PM 21.2 °F 10.9 °F 8.6 °F 58% 30.34 in 10.0 mi East 9.2 mph - N/A   Overcast
8:55 PM 21.2 °F 10.9 °F 10.4 °F 63% 30.32 in 10.0 mi East 9.2 mph - N/A   Overcast
9:15 PM 21.2 °F 10.9 °F 10.4 °F 63% 30.31 in 10.0 mi East 9.2 mph - N/A   Overcast
9:35 PM 21.2 °F 11.7 °F 10.4 °F 63% 30.32 in 10.0 mi East 8.1 mph - N/A   Overcast
9:55 PM 21.2 °F 8.9 °F 8.6 °F 58% 30.29 in 10.0 mi ESE 12.7 mph 16.1 mph N/A   Overcast
10:15 PM 21.2 °F 8.9 °F 10.4 °F 63% 30.29 in 10.0 mi ESE 12.7 mph 17.3 mph N/A   Overcast
10:35 PM 21.2 °F 11.7 °F 8.6 °F 58% 30.30 in 10.0 mi ESE 8.1 mph - N/A   Overcast
10:55 PM 21.2 °F 12.6 °F 8.6 °F 58% 30.29 in 10.0 mi ESE 6.9 mph - N/A   Overcast
11:15 PM 21.2 °F 10.9 °F 8.6 °F 58% 30.27 in 10.0 mi ESE 9.2 mph - N/A   Overcast
11:35 PM 21.2 °F 10.1 °F 8.6 °F 58% 30.25 in 10.0 mi East 10.4 mph - N/A   Overcast
11:55 PM 21.2 °F 10.9 °F 8.6 °F 58% 30.26 in 10.0 mi East 9.2 mph - N/A   Overcast